User: anonymous   Login
Location: Arrodets-la-Barthe
(43.0306°N, 0.2829°E)
Time: 05:25:23
(UTC+00:00)
Language:

Cosmos 2322 Rocket - Orbit

View from above orbital plane
View from above orbital plane
View from above satellite
View from above satellite

Ground track
Ground track

The orbit data is extracted from the following two-line orbital elements,

1 23705U 95058B   22021.59868216 -.00000068  00000-0 -10248-4 0  9991
2 23705  71.0233 105.4231 0014986 260.4434  99.4996 14.15165391354477
Epoch (UTC): 21 January 2022 14:22:06
Eccentricity: 0.0014986
inclination: 71.0233°
perigee height: 831 km
apogee height: 852 km
right ascension of ascending node: 105.4231°
argument of perigee: 260.4434°
revolutions per day: 14.15165391
mean anomaly at epoch: 99.4996°
orbit number at epoch: 35447

The dashed part of the orbit path shows where the satellite is in the earth's shadow,  

DLR